Location: Siloam Springs
(36.1881°N, 94.5403°W)
Time: 06:02:38
(UTC-05:00)

CUBESAT XI-V - Pass Details

Date: 04 June 2024
Orbit: 657 x 679 km, 98.2° (Epoch: 16 June)

Event Time Altitude Azimuth Distance (km) Brightness Sun altitude
Exits shadow 03:41:33 62° 229° (SW) 739 ? -22.0°
Maximum altitude 03:41:55 65° 258° (WSW) 722 ? -22.0°
Drops below altitude 10° 03:46:26 10° 341° (NNW) 2,075 ? -21.5°
Sets 03:48:40 0° 344° (NNW) 2,992 ? -21.2°
